Regional Weather Roundup
Issued by NWS State College, PA

Home | Current Version | Previous Version | Text Only | Print | Product List | Glossary On
Versions: 1 2 3 4 5 6 7 8 9 10 11 12 13 14 15 16 17 18 19 20 21 22 23 24 25 26 27 28 29 30 31 32 33 34 35 36 37 38 39 40 41 42 43 44 45 46 47 48 49 50
000
ASUS41 KCTP 191110
RWRCTP

REGIONAL WEATHER ROUNDUP
NATIONAL WEATHER SERVICE STATE COLLEGE PA
600 AM EST SUN NOV 19 2017

Note: "fair" indicates few or no clouds below 12,000 feet with no
significant weather and/or obstructions to visibility.

* = STATION THAT DOES NOT REPORT PRECIPITATION /E.G. RAIN...SNOW...ETC/
    THUNDER OR FOG.

PAZ002>004-007>009-013>016-020>023-029>032-191200-
WESTERN PENNSYLVANIA

CITY           SKY/WX    TMP DP  RH WIND       PRES   REMARKS
ERIE           LGT RAIN  40  32  73 NW17G29   29.60R
MEADVILLE      LGT RAIN  36  34  92 NW17G29   29.58R
FRANKLIN*      LGT RAIN  36  33  89 W12G26    29.57R
NEW CASTLE     CLOUDY    37  36  96 W12       29.65R
BEAVER COUNTY  NOT AVBL
BUTLER*        CLOUDY    37  35  92 W10G26    29.63R
PITTSBURGH INT CLOUDY    39  35  86 W20G28    29.65R
PITTSBURGH     CLOUDY    38  32  79 W16G31    29.64R
INDIANA*       CLOUDY    37  37 100 W14G23    29.60R
LATROBE        LGT RAIN  37  36  93 SW14G20   29.64R
WASHINGTON CO* CLOUDY    37  34  87 W16G28    29.71R
$$

PAZ004>006-010>012-017>019-024>028-033>037-041-042-045-046-049>053-191200-
CENTRAL PENNSYLVANIA

CITY           SKY/WX    TMP DP  RH WIND       PRES   REMARKS
BRADFORD       LGT SNOW  34  32  92 W18G29    29.44R FOG
DUBOIS         CLOUDY    36  33  89 W17G25    29.49R
CLEARFIELD     LGT RAIN  39  34  82 W14G28    29.49R
JOHNSTOWN      LGT SNOW  33  32  96 W21G32    29.54R FOG
ALTOONA        CLOUDY    40  33  76 W22G33    29.51R
STATE COLLEGE  LGT RAIN  39  36  87 W23       29.46R
WILLIAMSPORT   CLOUDY    48  40  73 W13       29.36R
SELINSGROVE    MOCLDY    46  36  68 W15G32    29.40R
FT INDIANTOWN  PTCLDY    47  36  64 W30G41    29.37R
CAPITAL CITY   MOCLDY    48  34  58 W20G30    29.42R
HARRISBURG     MOCLDY    48  36  63 W23G32    29.41R
YORK           PTCLDY    47  35  63 W20G30    29.44R
$$

PAZ038>040-043-044-047-048-054-055-060>062-067>071-191200-
EASTERN PENNSYLVANIA

CITY           SKY/WX    TMP DP  RH WIND       PRES   REMARKS
SCRANTON       CLOUDY    50  45  83 SW24G35   29.24R
MOUNT POCONO   NOT AVBL
ALLENTOWN      CLOUDY    58  49  72 W25G35    29.23R
QUAKERTOWN*    CLOUDY    57  52  82 W21G31    29.26R
READING        CLOUDY    53  43  68 W22G41    29.32R
LANCASTER        N/A    N/A N/A N/A MISG      29.36R
COATESVILLE    CLOUDY    52  43  71 W26G41    29.35R
POTTSTOWN      LGT RAIN  55  52  89 W20G35    29.30R
BLUE BELL      CLOUDY    55  54  94 SW9G20    29.28R
DOYLESTOWN     LGT RAIN  57  53  86 SW9G23    29.24F
WILLOW GROVE   NOT AVBL
NORTH PHILA    LGT RAIN  60  56  86 SW15G23   29.28F
PHILADELPHIA   LGT RAIN  58  55  90 SW21G33   29.29S
$$



USA.gov is the U.S. government's official web portal to all federal, state and local government web resources and services.